Date String (YYYY-MM-DD hh:mm:ss) UTC,Instrument flags,absolute air pressure of the measurement (hPa),sample flow rate (lpm),inlet stack bypass flow (lpm),air temperature of the measurement (°C),ambient temperature measured by the external sensor (°C),aerosol sample conditioner tube jacket temperature (°C),OPC LED temperature (°C),internal box temperature (°C),relative humidity of the measurement (%),span deviation,mass concentration of particles derived from Lorenz-Mie calculation of OPC scattering (μg/m³),mass concentration of particles derived from Lorenz-Mie calculation of OPC scattering (μg/m³),mass concentration of particles derived from Lorenz-Mie calculation of OPC scattering (μg/m³)
DateTimeUTC,F1_M11,P_M11,Q1_M11,Q2_M11,T1_M11,T2_M11,T3_M11,T4_M11,T5_M11,U1_M11,ZSPAN_M11,X0_M11,X2_M11,X1_M11
2024-06-10 02:00:00,SystemResetWarning,0831.4,5.02,000.00,029.5,026.4,000.0,038.3,030.3,040.4,0001.8,0016.61,0009.30,0008.16
2024-06-10 02:01:00,SystemResetWarning,0831.4,4.99,000.00,029.3,026.5,000.0,038.2,030.3,040.8,0001.5,0016.33,0009.40,0008.23
2024-06-10 02:02:00,SystemResetWarning,0831.4,5.00,000.00,029.3,027.0,000.0,038.1,030.6,040.9,0001.3,0016.36,0009.44,0008.29
2024-06-10 02:03:00,SystemResetWarning,0831.3,5.00,000.00,029.3,027.4,000.0,038.0,030.8,040.8,0001.3,0016.52,0009.49,0008.33
2024-06-10 02:04:00,SystemResetWarning,0831.3,4.99,000.00,029.3,027.7,000.0,037.9,031.0,040.7,0001.8,0016.36,0009.47,0008.36
2024-06-10 02:05:00,SystemResetWarning,0831.3,5.01,000.00,029.4,028.1,000.0,037.9,031.1,040.7,0001.6,0016.14,0009.46,0008.36
2024-06-10 02:06:00,SystemResetWarning,0831.4,5.00,000.00,029.4,028.3,000.0,037.9,031.2,040.6,0001.2,0015.64,0009.45,0008.36
2024-06-10 02:07:00,SystemResetWarning,0831.4,5.00,000.00,029.5,028.6,000.0,037.9,031.3,040.3,0001.6,0015.44,0009.49,0008.37
2024-06-10 02:08:00,SystemResetWarning,0831.4,5.00,000.00,029.6,028.7,000.0,037.9,031.4,040.2,0001.4,0015.03,0009.40,0008.36
2024-06-10 02:09:00,SystemResetWarning,0831.4,5.00,000.00,029.6,028.9,000.0,037.9,031.5,040.3,0001.4,0014.69,0009.36,0008.34
2024-06-10 02:10:00,SystemResetWarning,0831.5,5.00,000.00,029.7,029.0,000.0,037.9,031.5,040.1,0001.4,0014.51,0009.32,0008.31
2024-06-10 02:11:00,SystemResetWarning,0831.5,5.00,000.00,029.7,029.2,000.0,038.0,031.6,039.9,0001.2,0013.88,0009.28,0008.28
2024-06-10 02:12:00,SystemResetWarning,0831.4,5.00,000.00,029.8,029.3,000.0,038.0,031.7,039.7,0001.0,0014.36,0009.26,0008.25
2024-06-10 02:13:00,SystemResetWarning,0831.4,5.00,000.00,029.9,029.4,000.0,038.0,031.8,039.6,0000.9,0014.70,0009.21,0008.21
2024-06-10 02:14:00,SystemResetWarning,0831.4,5.00,000.00,029.9,029.4,000.0,038.0,031.8,039.5,0000.8,0014.67,0009.18,0008.18
2024-06-10 02:15:00,SystemResetWarning,0831.3,5.00,000.00,030.0,029.5,000.0,038.1,031.9,039.4,0000.3,0015.14,0009.17,0008.14
2024-06-10 02:16:00,SystemResetWarning,0831.3,5.00,000.00,030.0,029.6,000.0,038.1,031.9,039.3,0000.1,0015.54,0009.16,0008.11
2024-06-10 02:17:00,SystemResetWarning,0831.3,5.00,000.00,030.1,029.6,000.0,038.1,031.9,039.1,-000.1,0017.30,0009.12,0008.08
2024-06-10 02:18:00,SystemResetWarning,0831.3,4.99,000.00,030.1,029.0,000.0,038.2,031.6,039.1,-000.1,0018.47,0009.12,0008.04
2024-06-10 02:19:00,SystemResetWarning,0831.2,5.00,000.00,029.7,026.9,000.0,038.3,030.7,039.7,-000.6,0019.86,0009.11,0008.02
2024-06-10 02:20:00,SystemResetWarning,0831.2,5.02,000.00,029.4,026.4,000.0,038.2,030.3,040.3,-000.4,0020.10,0009.11,0008.01
2024-06-10 02:21:00,SystemResetWarning,0831.2,4.99,000.00,029.3,026.6,000.0,038.1,030.3,040.6,-000.5,0020.82,0009.08,0007.99
2024-06-10 02:22:00,SystemResetWarning,0831.2,5.00,000.00,029.3,027.0,000.0,038.0,030.6,040.6,0000.0,0020.70,0009.01,0007.94
2024-06-10 02:23:00,SystemResetWarning,0831.2,5.00,000.00,029.3,027.4,000.0,038.0,030.8,040.7,0000.0,0020.56,0008.87,0007.87
2024-06-10 02:24:00,SystemResetWarning,0831.2,5.00,000.00,029.3,027.8,000.0,037.9,030.9,040.7,0000.0,0019.83,0008.79,0007.83
2024-06-10 02:25:00,SystemResetWarning,0831.2,4.99,000.00,029.4,028.1,000.0,037.9,031.1,040.5,0000.0,0019.91,0008.76,0007.77
2024-06-10 02:26:00,SystemResetWarning,0831.2,5.00,000.00,029.4,028.3,000.0,037.9,031.2,040.3,0000.0,0020.08,0008.66,0007.71
2024-06-10 02:27:00,SystemResetWarning,0831.2,5.00,000.00,029.5,028.5,000.0,037.9,031.3,040.1,0000.0,0019.93,0008.66,0007.65
2024-06-10 02:28:00,SystemResetWarning,0831.2,5.00,000.00,029.5,028.7,000.0,037.9,031.3,040.1,0000.0,0018.32,0008.61,0007.59
2024-06-10 02:29:00,SystemResetWarning,0831.2,5.00,000.00,029.6,028.9,000.0,037.9,031.4,040.0,0000.0,0017.11,0008.55,0007.53
2024-06-10 02:30:00,SystemResetWarning,0831.2,5.00,000.00,029.7,029.0,000.0,037.9,031.5,039.8,0000.0,0016.08,0008.50,0007.47
2024-06-10 02:31:00,SystemResetWarning,0831.2,5.00,000.00,029.7,029.1,000.0,037.9,031.6,039.7,0000.0,0015.97,0008.42,0007.41
2024-06-10 02:32:00,SystemResetWarning,0831.1,5.00,000.00,029.8,029.2,000.0,037.9,031.6,039.5,0000.0,0015.06,0008.34,0007.36
2024-06-10 02:33:00,SystemResetWarning,0831.1,5.00,000.00,029.8,029.3,000.0,038.0,031.7,039.5,0000.0,0015.14,0008.32,0007.30
2024-06-10 02:34:00,SystemResetWarning,0831.1,5.00,000.00,029.9,029.4,000.0,038.0,031.7,039.4,0000.0,0015.24,0008.33,0007.28
2024-06-10 02:35:00,SystemResetWarning,0831.0,5.00,000.00,029.9,029.4,000.0,038.0,031.8,039.3,0000.0,0015.74,0008.33,0007.23
2024-06-10 02:36:00,SystemResetWarning,0831.0,5.00,000.00,030.0,029.5,000.0,038.1,031.8,039.2,0000.0,0016.10,0008.29,0007.20
2024-06-10 02:37:00,SystemResetWarning,0830.9,5.00,000.00,030.0,029.5,000.0,038.1,031.8,039.1,0000.0,0015.49,0008.28,0007.18
2024-06-10 02:38:00,SystemResetWarning,0831.0,5.00,000.00,030.1,029.6,000.0,038.1,031.9,039.0,0000.0,0015.25,0008.23,0007.15
2024-06-10 02:39:00,SystemResetWarning,0830.9,5.00,000.00,030.1,029.7,000.0,038.2,032.0,038.8,0000.0,0014.98,0008.16,0007.12
2024-06-10 02:40:00,SystemResetWarning,0830.9,5.00,000.00,030.2,029.7,000.0,038.2,032.0,038.7,0000.0,0014.86,0008.11,0007.10
2024-06-10 02:41:00,SystemResetWarning,0831.0,5.00,000.00,030.2,029.7,000.0,038.3,032.0,038.6,0000.0,0014.86,0008.11,0007.09
2024-06-10 02:42:00,SystemResetWarning,0831.0,5.00,000.00,030.2,029.8,000.0,038.3,032.0,038.5,0000.0,0014.86,0008.16,0007.10
2024-06-10 02:43:00,SystemResetWarning,0831.1,5.00,000.00,030.3,029.8,000.0,038.3,032.0,038.5,0000.0,0014.83,0008.15,0007.10
2024-06-10 02:44:00,SystemResetWarning,0831.0,4.99,000.00,030.1,028.2,000.0,038.4,031.3,038.8,0000.0,0014.71,0008.11,0007.11
2024-06-10 02:45:00,SystemResetWarning,0830.9,5.01,000.00,029.7,026.6,000.0,038.4,030.6,039.5,0000.0,0014.33,0008.07,0007.10
2024-06-10 02:46:00,SystemResetWarning,0830.9,5.01,000.00,029.5,026.5,000.0,038.4,030.4,040.0,0000.0,0013.76,0008.07,0007.09
2024-06-10 02:47:00,SystemResetWarning,0830.9,4.99,000.00,029.4,026.8,000.0,038.2,030.5,040.3,0000.0,0013.81,0008.10,0007.10
2024-06-10 02:48:00,SystemResetWarning,0830.9,5.00,000.00,029.4,027.3,000.0,038.1,030.8,040.4,0000.0,0013.87,0008.12,0007.10
2024-06-10 02:49:00,SystemResetWarning,0830.9,5.00,000.00,029.4,027.6,000.0,038.1,030.9,040.2,0000.0,0013.89,0008.06,0007.08
2024-06-10 02:50:00,SystemResetWarning,0830.8,4.99,000.00,029.5,028.0,000.0,038.0,031.1,040.1,0000.0,0014.42,0008.08,0007.09
2024-06-10 02:51:00,SystemResetWarning,0830.8,5.00,000.00,029.5,028.2,000.0,038.0,031.2,040.0,0000.0,0015.47,0008.13,0007.09
2024-06-10 02:52:00,SystemResetWarning,0830.8,5.00,000.00,029.6,028.5,000.0,038.0,031.3,040.0,0000.0,0015.86,0008.08,0007.06
2024-06-10 02:53:00,SystemResetWarning,0830.8,5.00,000.00,029.6,028.7,000.0,038.0,031.4,040.1,0000.0,0015.51,0007.99,0007.03
2024-06-10 02:54:00,SystemResetWarning,0830.8,5.00,000.00,029.7,028.8,000.0,038.0,031.4,039.8,0000.0,0015.55,0008.02,0007.07
2024-06-10 02:55:00,SystemResetWarning,0830.7,5.00,000.00,029.7,029.0,000.0,038.0,031.5,039.7,0000.0,0015.53,0008.07,0007.10
2024-06-10 02:56:00,SystemResetWarning,0830.7,5.00,000.00,029.8,029.1,000.0,038.0,031.5,039.7,0000.0,0015.68,0008.16,0007.15
2024-06-10 02:57:00,SystemResetWarning,0830.8,5.00,000.00,029.8,029.2,000.0,038.0,031.6,039.5,0000.0,0015.44,0008.19,0007.21
2024-06-10 02:58:00,SystemResetWarning,0830.8,4.99,000.00,029.8,029.3,000.0,038.1,031.7,039.5,0000.0,0015.04,0008.19,0007.25
2024-06-10 02:59:00,SystemResetWarning,0830.9,5.00,000.00,029.9,029.3,000.0,038.1,031.7,039.2,0000.0,0014.81,0008.19,0007.29
